ECHOSTAR 21 (42749 NORAD) Tracking and Keplerian Element Data

This shows tracking and keplerian element data for the satellite.

Feedback or suggestion? Click here.




ElementValue
Catalog42749
NameECHOSTAR 21
Epoch Orbit536
Epoch Day322.68918628
Epoch Year2018
RAAN316.1715
Inclination6.6085
Eccentricity0.0002342
Argument of Perigee267.8978
Mean Anonmoly91.9986
Mean Motion1.0027202
Decay Rate6.2E-07
L11 42749U 17032A 18322.68918628 .00000062 00000-0 00000-0 0 9991
L22 42749 6.6085 316.1715 0002342 267.8978 91.9986 1.00272020 5365

Live tracking and technical data element details for ECHOSTAR 21 (NORAD 42749). ECHOSTAR 21 can be tracked NOW for your location showing map with azimuth and elevation plus other details from your city location.

Track the satellite on the map from your city or location and see movement details for azimuth, elevation, latitude, longitude, range, height, and movement on the map or in text.







IsCatalogInMostPopularTable: catalog: 42749, numindb: 137
Update: records affected: 1



GetName: 42749 ECHOSTAR 21

Hit Count: updated at: Mon, 19 Nov 2018 11:04:42 GMT